Tracking 28126 objects as of 2-Oct-2023
HD Live streaming from Space Station
objects crossing your sky now

JUPITER 3 (ECHOSTAR 24)

Track JUPITER 3 (ECHOSTAR 24) now!
JUPITER 3 (ECHOSTAR 24) is classified as:


NORAD ID: 57479
Int'l Code: 2023-108A
Perigee: 35,789.6 km
Apogee: 35,799.0 km
Inclination: 0.0 °
Period: 1,436.1 minutes
Semi major axis: 42165 km
RCS: Unknown
Launch date: July 29, 2023
Source: United States (US)
Launch site: AIR FORCE EASTERN TEST RANGE (AFETR)
Your satellite tracking list
Your tracking list is empty




NASA's NSSDC Master Catalog

Two Line Element Set (TLE):
1 57479U 23108A   23274.23747293 -.00000160  00000-0  00000-0 0  9999
2 57479   0.0026 259.9680 0001107 257.0988 202.9382  1.00269760   714
Source of the keplerian elements: AFSPC